Beaufort, NC

3:17 PM EDT on October 16, 2019 (GMT -0400)
Smith

Weather History for KMRH - May, 2019

Change the Weather History Date:

Sunday, May 12, 2019

  Actual Average Record
Temperature  
Mean Temperature 75 °F -  
Max Temperature 81 °F 76 °F 85 °F (1948)
Min Temperature 69 °F 58 °F 43 °F (1969)
Cooling Degree Days 10    
Growing Degree Days 25 (Base 50)    
Moisture  
Dew Point 69 °F    
Average Humidity 83    
Maximum Humidity 93    
Minimum Humidity 73    
Precipitation  
Precipitation 0.41 in - - ()
Sea Level Pressure  
Sea Level Pressure 29.82 in    
Wind  
Wind Speed 14 mph (SW)    
Max Wind Speed 28 mph    
Max Gust Speed 50 mph    
Visibility 9 miles    
Events Rain    
Averages and records for this station are not official NWS values.
T = Trace of Precipitation, MM = Missing Value Source: NWS Daily Summary

Daily Weather History Graph

Daily Weather History Graph

Search for Another Location

Airport or City:

Astronomy

May. 12, 2019 Rise Set
Actual Time 6:06 AM EDT 8:00 PM EDT
Civil Twilight 5:38 AM EDT 8:28 PM EDT
Nautical Twilight 5:04 AM EDT 9:01 PM EDT
Astronomical Twilight 4:29 AM EDT 9:37 PM EDT
Moon 1:20 PM EDT (5/12) 2:22 AM EDT (5/12)
Length of Visible Light 14h 49m
Length of Day
13h 54m
First Quarter, 57% of the Moon is Illuminated
May 12
First Quarter
May 18
Full
May 26
Last Quarter
Jun 3
New
Jun 10
First Quarter

Hourly Weather History & Observations

Time (EDT) Temp. Heat Index Dew Point Humidity Pressure Visibility Wind Dir Wind Speed Gust Speed Precip Events Conditions
12:58 AM 73.9 °F - 68.0 °F 82% 29.92 in 10.0 mi SSW 11.5 mph - N/A   Clear
1:58 AM 73.9 °F - 68.0 °F 82% 29.90 in 10.0 mi SSW 11.5 mph - N/A   Clear
2:58 AM 73.9 °F - 69.1 °F 85% 29.88 in 10.0 mi SW 11.5 mph - N/A   Scattered Clouds
3:58 AM 73.9 °F - 69.1 °F 85% 29.86 in 10.0 mi SSW 10.4 mph - N/A   Clear
4:58 AM 73.9 °F - 70.0 °F 87% 29.85 in 10.0 mi SSW 13.8 mph - N/A   Clear
5:58 AM 73.9 °F - 70.0 °F 87% 29.86 in 10.0 mi SW 13.8 mph - N/A   Clear
6:21 AM 75.0 °F - 70.0 °F 84% 29.85 in 10.0 mi SW 15.0 mph - N/A   Mostly Cloudy
6:31 AM 75.0 °F - 70.0 °F 84% 29.86 in 10.0 mi SW 11.5 mph - N/A   Mostly Cloudy
6:58 AM 75.0 °F - 70.0 °F 84% 29.86 in 10.0 mi SSW 12.7 mph - N/A   Mostly Cloudy
7:26 AM 75.0 °F - 71.1 °F 87% 29.86 in 10.0 mi SSW 11.5 mph - 0.00 in Rain Light Rain
7:41 AM 75.0 °F - 71.1 °F 87% 29.86 in 10.0 mi SSW 12.7 mph - 0.00 in   Scattered Clouds
7:58 AM 75.9 °F - 71.1 °F 85% 29.86 in 10.0 mi SSW 13.8 mph - 0.00 in   Clear
8:58 AM 77.0 °F - 71.1 °F 82% 29.85 in 10.0 mi SW 19.6 mph - N/A   Mostly Cloudy
9:58 AM 78.1 °F - 72.0 °F 81% 29.84 in 10.0 mi SW 17.3 mph - N/A   Mostly Cloudy
10:09 AM 81.0 °F 85.2 °F 72.0 °F 74% 29.84 in 10.0 mi SW 16.1 mph 24.2 mph N/A   Scattered Clouds
10:19 AM 78.1 °F - 71.1 °F 79% 29.84 in 10.0 mi SW 19.6 mph - N/A   Mostly Cloudy
10:29 AM 78.1 °F - 72.0 °F 81% 29.85 in 10.0 mi SW 18.4 mph - N/A   Partly Cloudy
10:58 AM 77.0 °F - 71.1 °F 82% 29.86 in 10.0 mi SW 17.3 mph - N/A   Mostly Cloudy
11:12 AM 75.0 °F - 69.1 °F 82% 29.85 in 9.0 mi SW 27.6 mph 49.5 mph 0.00 in Rain Light Rain
11:19 AM 73.9 °F - 64.9 °F 73% 29.84 in 10.0 mi WSW 21.9 mph 49.5 mph 0.00 in   Overcast
11:58 AM 72.0 °F - 68.0 °F 87% 29.86 in 4.0 mi SW 24.2 mph 31.1 mph 0.07 in Rain Heavy Rain
12:58 PM 70.0 °F - 68.0 °F 93% 29.83 in 4.0 mi SSW 17.3 mph - 0.18 in Rain Rain
1:58 PM 75.0 °F - 71.1 °F 87% 29.81 in 10.0 mi SW 15.0 mph - 0.01 in   Scattered Clouds
2:51 PM 75.9 °F - 68.0 °F 76% 29.78 in 10.0 mi SSW 17.3 mph 23.0 mph N/A   Overcast
2:58 PM 77.0 °F - 69.1 °F 76% 29.78 in 10.0 mi SSW 17.3 mph - N/A   Overcast
3:58 PM 77.0 °F - 70.0 °F 79% 29.77 in 10.0 mi SSW 13.8 mph - N/A   Mostly Cloudy
4:10 PM 77.0 °F - 71.1 °F 82% 29.77 in 10.0 mi SSW 17.3 mph - N/A   Mostly Cloudy
4:31 PM 73.0 °F - 68.0 °F 84% 29.81 in 2.0 mi West 23.0 mph 40.3 mph 0.06 in Rain Heavy Rain
4:33 PM 71.1 °F - 66.0 °F 84% 29.80 in 1.5 mi West 20.7 mph 40.3 mph 0.07 in Rain Heavy Rain
4:39 PM 69.1 °F - 64.9 °F 87% 29.80 in 2.0 mi WSW 15.0 mph 32.2 mph 0.08 in Rain Light Rain
4:47 PM 69.1 °F - 64.9 °F 87% 29.80 in 5.0 mi WSW 10.4 mph - 0.09 in Rain Light Rain
4:58 PM 69.1 °F - 64.9 °F 87% 29.78 in 2.5 mi SW 11.5 mph 21.9 mph 0.14 in Rain Heavy Rain
5:58 PM 72.0 °F - 66.9 °F 84% 29.75 in 10.0 mi SW 8.1 mph - 0.01 in   Mostly Cloudy
6:58 PM 73.9 °F - 68.0 °F 82% 29.73 in 10.0 mi SW 12.7 mph - N/A   Clear
7:58 PM 73.9 °F - 68.0 °F 82% 29.75 in 10.0 mi SW 12.7 mph - N/A   Clear
8:58 PM 73.9 °F - 68.0 °F 82% 29.75 in 10.0 mi SW 12.7 mph - N/A   Clear
9:58 PM 73.9 °F - 68.0 °F 82% 29.76 in 10.0 mi SW 13.8 mph - N/A   Clear
10:58 PM 73.9 °F - 69.1 °F 85% 29.77 in 10.0 mi SSW 12.7 mph - N/A   Clear
11:58 PM 73.9 °F - 70.0 °F 87% 29.77 in 10.0 mi SW 10.4 mph - N/A   Mostly Cloudy